Regional Weather Roundup
Issued by NWS

Home | Current Version | Previous Version | Graphics & Text | Print | Product List | Glossary On
Versions: 1 2 3 4 5 6 7 8 9 10 11 12 13 14 15 16 17 18 19 20 21 22 23 24 25 26 27 28 29 30 31 32 33 34 35 36 37 38 39 40 41 42 43 44 45 46 47 48 49 50
000
ASUS43 KLOT 290612
RWRIL

ILLINOIS REGIONAL WEATHER ROUNDUP
NATIONAL WEATHER SERVICE CHICAGO/ROMEOVILLE IL
100 AM CDT SAT AUG 29 2015

NOTE: "FAIR" INDICATES FEW OR NO CLOUDS BELOW 12,000 FEET WITH NO
SIGNIFICANT WEATHER AND/OR OBSTRUCTIONS TO VISIBILITY.

* THESE STATIONS ARE NOT UNDER NWS QUALITY CONTROL. THEY ALSO MAY NOT
  REPORT WEATHER SUCH AS PRECIPITATION OR FOG.

ILZ001-002-007-009-015-016-024-290700-
NORTHWEST ILLINOIS

CITY           SKY/WX    TMP DP  RH WIND       PRES   REMARKS
MOLINE         CLOUDY    66  62  87 E8        29.99F
6HR MIN TEMP:  66; 6HR MAX TEMP:  71; 6HR PCP:  0.07;

STERLING*      CLOUDY    66  63  88 E6        30.03R
SAVANNA*       HVY RAIN  66  63  91 S12       30.00F
$$

ILZ003-004-008-010-011-017-018-290700-
NORTH CENTRAL ILLINOIS

CITY           SKY/WX    TMP DP  RH WIND       PRES   REMARKS
ROCKFORD       RAIN      65  62  90 SE12      30.06F FOG
6HR MIN TEMP:  65; 6HR MAX TEMP:  68; 6HR PCP:  0.20;

FREEPORT*      LGT RAIN  63  62  96 SE12      30.05F
ROCHELLE*      LGT RAIN  65  62  91 SE6       30.06F
DE KALB*       CLOUDY    64  62  93 E5        30.08F
PERU*          CLOUDY    68  60  76 SE6       30.06F
$$

ILZ005-006-012>014-019>023-290700-
NORTHEAST ILLINOIS

CITY           SKY/WX    TMP DP  RH WIND       PRES   REMARKS
CHICAGO-OHARE  CLOUDY    69  64  84 NE5       30.08S
6HR MIN TEMP:  69; 6HR MAX TEMP:  72;

CHICAGO-MIDWAY MOCLDY    72  58  61 SE7       30.08R
6HR MIN TEMP:  71; 6HR MAX TEMP:  75;

AURORA         FAIR      65  61  87 E3        30.08S
6HR MIN TEMP:  64; 6HR MAX TEMP:  72;

LANSING*       FAIR      65  58  79 SE3       30.08S
JOLIET*        FAIR      69  62  78 CALM      30.08S
WAUKEGAN       CLOUDY    65  63  93 NE7       30.07F FOG
6HR MIN TEMP:  63; 6HR MAX TEMP:  65; 6HR PCP: TRACE;

DUPAGE AIRPORT CLOUDY    67  61  81 E3        30.08R
6HR MIN TEMP:  67; 6HR MAX TEMP:  70;

KANKAKEE*      FAIR      65  61  87 CALM      30.09R
WHEELING       MOCLDY    67  63  87 E3        30.09F
6HR MIN TEMP:  67; 6HR MAX TEMP:  70;

MORRIS*        FAIR      65  62  88 E3        30.06F
ROMEOVILLE*    FAIR      65  59  80 CALM      30.09R
NORTHERLY ISL    N/A     65  62  90 S1          N/A
$$

LMZ740>746-290700-
SOUTHERN LAKE MICHIGAN

STATION/POSITION SKY/WX   TEMP    WIND        PRES    VSBY  WAVE
                          AIR SEA DIR/SP/G                  HT/PER
                          (F)     (DEG/KT/KT) (MB)    (MI)  (FT/S)
SOUTHERN BUOY              68 68   60/  8/ 10 1019.0S         0
WILMETTE HARBOR            63 56  280/  4/  6   N/A           1/ 3
HARRISON CRIB              70     100/ 11/ 12   N/A
BURNHAM HARBOR             66     170/  3       N/A
BURNS HARBOR               72     120/  6/ 14 1019.3S
MICHIGAN CITY              69     100/  6/  8   N/A
MICHIGAN CITY 6N           70 71  160/  8/ 10   N/A           1
ST. JOSEPH                 70 72  170/ 10/ 10   N/A           1
$$

ILZ025>027-034>036-040-047-049-050-058-095>099-290700-
WEST-CENTRAL ILLINOIS

CITY           SKY/WX    TMP DP  RH WIND       PRES   REMARKS
QUINCY         CLOUDY    69  64  84 S10       29.99F
GALESBURG*     CLOUDY    66  61  83 SE5       30.01S
MACOMB*        CLOUDY    66  64  93 SE6       30.02F
JACKSONVILLE*  LGT RAIN  70  64  82 S6        30.03R
PITTSFIELD*    CLOUDY    68  64  84 SE3       30.03S
$$

ILZ028>032-037-038-041>044-048-051>054-059>061-290700-
CENTRAL ILLINOIS

CITY           SKY/WX    TMP DP  RH WIND       PRES   REMARKS
PONTIAC        MOCLDY    65  63  91 SE6       30.07S
BLOOMINGTON    FAIR      65  60  83 S8        30.07S
DECATUR        FAIR      66  59  78 CALM      30.06R
PEORIA         LGT RAIN  69  61  75 SE3       30.04S
6HR MIN TEMP:  69; 6HR MAX TEMP:  76; 6HR PCP:  0.01;

LACON*         CLOUDY    66  60  82 SE6       30.03F
LINCOLN*       MOCLDY    67  60  79 CALM      30.05R
SPRINGFIELD    CLOUDY    71  61  70 S8        30.04R
6HR MIN TEMP:  71; 6HR MAX TEMP:  76;

TAYLORVILLE    MOCLDY    66  61  82 SE3       30.05S
$$

ILZ033-039-045-046-055>057-062-063-290700-
EAST-CENTRAL ILLINOIS

CITY           SKY/WX    TMP DP  RH WIND       PRES   REMARKS
CHAMPAIGN      FAIR      64  60  87 SE5       30.07S
RANTOUL*       FAIR      66  62  87 SE3       30.07F
MATTOON        HAZE      68  59  73 SE7       30.06R VSB 1/2
PARIS*         FAIR      64  61  90 SE3       30.08S
$$

ILZ079-100>102-290700-
SOUTHWEST ILLINOIS

CITY           SKY/WX    TMP DP  RH WIND       PRES   REMARKS
ALTON          FAIR      68  63  84 SE3       30.03S
BELLEVILLE     MOCLDY    69  67  92 CALM      30.02S
CAHOKIA*       FAIR      70  63  78 SE6       30.02S
SPARTA*        FAIR      69  65  85 CALM      30.05R
$$

ILZ064>066-069>071-074>076-080>082-084>086-088>090-092>094-290700-
SOUTH-CENTRAL ILLINOIS

CITY           SKY/WX    TMP DP  RH WIND       PRES   REMARKS
CARBONDALE     FAIR      69  65  86 E3        30.03F
6HR MIN TEMP:  68; 6HR MAX TEMP:  76;

CAIRO*         FAIR      65  65 100 CALM      30.03F
EFFINGHAM*     FAIR      69  58  67 SE6       30.07S
MARION         FAIR      70  66  88 CALM      30.05S
MT. VERNON     FAIR      66  61  82 CALM      30.05F
SALEM*         FAIR      72  62  70 SE6       30.05S
METROPOLIS*    FAIR      66  66 100 CALM      30.05F
$$

ILZ067-068-072-073-078-083-087-091-290700-
SOUTHEAST ILLINOIS

CITY           SKY/WX    TMP DP  RH WIND       PRES   REMARKS
LAWRENCEVILLE  FAIR      67  61  81 E5        30.07F
FLORA*         FAIR      66  62  86 CALM      30.06S
FAIRFIELD*     FAIR      67  64  89 CALM      30.05S
HARRISBURG*    FAIR      65  64  97 CALM      30.05S
ROBINSON*      FAIR      62  60  93 CALM      30.08S
CARMI*         FAIR      65  64  95 SE3       30.04F
$$

ABBREVIATIONS USED IN REMARKS
   TC - TEMPERATURE IN CELSIUS
  WCI - WIND CHILL INDEX
   HX - HEAT INDEX
  VSB - VISIBILITY
$$




USA.gov is the U.S. government's official web portal to all federal, state and local government web resources and services.